Location: Helsinki
(60.1699°N, 24.9384°E)
Time: 00:02:44
(UTC+02:00)

A-11 Canister half - Pass Details

Date: 31 October 2020
Orbit: 1516 x 1684 km, 47.2° (Epoch: 26 November)

Event Time Altitude Azimuth Distance (km) Brightness Sun altitude
Rises 21:32:00 0° 239° (WSW) 4,930 11.8 -36.6°
Reaches altitude 10° 21:35:28 10° 232° (SW) 3,933 11.2 -36.9°
Enters shadow 21:39:21 24° 216° (SW) 2,963 10.3 -37.3°
Maximum altitude 21:44:21 38° 169° (S) 2,356 - -37.7°
Drops below altitude 10° 21:53:02 10° 107° (ESE) 3,839 - -38.5°
Sets 21:56:22 0° 100° (E) 4,801 - -38.7°
